Time,TemperatureF,DewpointF,PressureIn,WindDirection,WindDirectionDegrees,WindSpeedMPH,WindSpeedGustMPH,Humidity,HourlyPrecipIn,Conditions,Clouds,dailyrainin,SoftwareType,DateUTC
2013-05-17 00:01:00,54.0,48.2,29.82,WNW,294,0.0,0.0,81,0.00,,,0.00,meteohub,2013-05-17 04:01:00,
2013-05-17 00:03:00,53.8,48.0,29.82,WNW,294,0.0,0.0,81,0.00,,,0.00,meteohub,2013-05-17 04:03:00,
2013-05-17 00:04:00,53.8,48.0,29.82,WNW,294,0.0,0.0,81,0.00,,,0.00,meteohub,2013-05-17 04:04:00,
2013-05-17 00:09:00,53.6,47.8,29.82,WNW,294,0.0,0.0,81,0.00,,,0.00,meteohub,2013-05-17 04:09:00,
2013-05-17 00:14:00,53.4,47.7,29.82,WNW,294,0.0,0.0,81,0.00,,,0.00,meteohub,2013-05-17 04:14:00,
2013-05-17 00:19:00,53.2,47.8,29.82,WNW,294,0.0,0.0,82,0.00,,,0.00,meteohub,2013-05-17 04:19:00,
2013-05-17 00:24:00,53.1,47.7,29.82,WNW,294,0.0,0.0,82,0.00,,,0.00,meteohub,2013-05-17 04:24:00,
2013-05-17 00:29:00,52.9,47.8,29.82,WNW,294,0.0,0.0,83,0.00,,,0.00,meteohub,2013-05-17 04:29:00,
2013-05-17 00:34:00,52.7,48.0,29.83,WNW,294,0.0,0.0,84,0.00,,,0.00,meteohub,2013-05-17 04:34:00,
2013-05-17 00:39:00,52.5,48.2,29.83,WNW,294,0.0,0.0,85,0.00,,,0.00,meteohub,2013-05-17 04:39:00,
2013-05-17 00:45:00,52.3,48.0,29.83,WNW,294,0.0,0.0,85,0.00,,,0.00,meteohub,2013-05-17 04:45:00,
2013-05-17 00:50:00,52.2,48.0,29.83,WNW,294,0.0,0.0,86,0.00,,,0.00,meteohub,2013-05-17 04:50:00,
2013-05-17 00:55:00,52.0,47.8,29.83,WNW,294,0.0,0.0,86,0.00,,,0.00,meteohub,2013-05-17 04:55:00,
2013-05-17 01:00:00,51.6,47.5,29.83,WNW,294,0.0,0.0,86,0.00,,,0.00,meteohub,2013-05-17 05:00:00,
2013-05-17 01:05:00,51.6,47.5,29.84,WNW,294,0.0,0.0,86,0.00,,,0.00,meteohub,2013-05-17 05:05:00,
2013-05-17 01:10:00,51.4,47.5,29.84,WNW,294,0.0,0.0,86,0.00,,,0.00,meteohub,2013-05-17 05:10:00,
2013-05-17 01:15:00,51.3,47.5,29.84,WNW,294,0.0,0.0,87,0.00,,,0.00,meteohub,2013-05-17 05:15:00,
2013-05-17 01:20:00,51.1,47.7,29.84,WNW,294,0.0,0.0,88,0.00,,,0.00,meteohub,2013-05-17 05:20:00,
2013-05-17 01:25:00,50.9,47.5,29.84,WNW,294,0.0,0.0,88,0.00,,,0.00,meteohub,2013-05-17 05:25:00,
2013-05-17 01:31:00,50.7,47.3,29.84,WNW,294,0.0,0.0,88,0.00,,,0.00,meteohub,2013-05-17 05:31:00,
2013-05-17 01:36:00,50.5,47.1,29.84,WNW,294,0.0,0.0,88,0.00,,,0.00,meteohub,2013-05-17 05:36:00,
2013-05-17 01:41:00,50.4,47.3,29.84,WNW,294,0.0,0.0,89,0.00,,,0.00,meteohub,2013-05-17 05:41:00,
2013-05-17 01:46:00,50.2,47.1,29.84,WNW,294,0.0,0.0,89,0.00,,,0.00,meteohub,2013-05-17 05:46:00,
2013-05-17 01:51:00,50.0,46.9,29.84,WNW,294,0.0,0.0,89,0.00,,,0.00,meteohub,2013-05-17 05:51:00,
2013-05-17 01:56:00,49.8,46.8,29.85,WNW,294,0.0,0.0,89,0.00,,,0.00,meteohub,2013-05-17 05:56:00,
2013-05-17 02:01:00,49.6,46.8,29.85,WNW,294,0.0,0.0,90,0.00,,,0.00,meteohub,2013-05-17 06:01:00,
2013-05-17 02:07:00,49.5,46.6,29.85,WNW,294,0.0,0.0,90,0.00,,,0.00,meteohub,2013-05-17 06:07:00,
2013-05-17 02:12:00,49.3,46.4,29.85,WNW,294,0.0,0.0,90,0.00,,,0.00,meteohub,2013-05-17 06:12:00,
2013-05-17 02:17:00,49.1,46.2,29.85,WNW,294,0.0,0.0,90,0.00,,,0.00,meteohub,2013-05-17 06:17:00,
2013-05-17 02:22:00,48.9,46.4,29.86,WNW,294,0.0,0.0,91,0.00,,,0.00,meteohub,2013-05-17 06:22:00,
2013-05-17 02:27:00,48.7,46.2,29.86,WNW,294,0.0,0.0,91,0.00,,,0.00,meteohub,2013-05-17 06:27:00,
2013-05-17 02:32:00,48.6,46.0,29.86,WNW,294,0.0,0.0,91,0.00,,,0.00,meteohub,2013-05-17 06:32:00,
2013-05-17 02:37:00,48.4,45.9,29.86,WNW,294,0.0,0.0,91,0.00,,,0.00,meteohub,2013-05-17 06:37:00,
2013-05-17 02:42:00,48.2,46.0,29.86,WNW,294,0.0,0.0,92,0.00,,,0.00,meteohub,2013-05-17 06:42:00,
2013-05-17 02:47:00,48.0,45.9,29.86,WNW,294,0.0,0.0,92,0.00,,,0.00,meteohub,2013-05-17 06:47:00,
2013-05-17 02:52:00,48.0,45.5,29.87,WNW,294,0.0,0.0,91,0.00,,,0.00,meteohub,2013-05-17 06:52:00,
2013-05-17 02:57:00,47.8,45.0,29.87,WNW,294,0.0,0.0,90,0.00,,,0.00,meteohub,2013-05-17 06:57:00,
2013-05-17 03:02:00,47.8,45.0,29.87,WNW,294,0.0,0.0,90,0.00,,,0.00,meteohub,2013-05-17 07:02:00,
2013-05-17 03:07:00,47.7,45.1,29.87,WNW,294,0.0,0.0,91,0.00,,,0.00,meteohub,2013-05-17 07:07:00,
2013-05-17 03:12:00,47.5,44.8,29.88,WNW,294,0.0,0.0,90,0.00,,,0.00,meteohub,2013-05-17 07:12:00,
2013-05-17 03:17:00,47.3,44.8,29.88,WNW,294,0.0,0.0,91,0.00,,,0.00,meteohub,2013-05-17 07:17:00,
2013-05-17 03:22:00,46.9,44.8,29.88,WNW,294,0.0,0.0,92,0.00,,,0.00,meteohub,2013-05-17 07:22:00,
2013-05-17 03:27:00,46.9,44.8,29.88,WNW,294,0.0,0.0,92,0.00,,,0.00,meteohub,2013-05-17 07:27:00,
2013-05-17 03:32:00,47.1,44.6,29.88,WNW,294,0.0,0.0,91,0.00,,,0.00,meteohub,2013-05-17 07:32:00,
2013-05-17 03:37:00,47.3,44.6,29.89,WNW,294,0.0,0.0,90,0.00,,,0.00,meteohub,2013-05-17 07:37:00,
2013-05-17 03:42:00,47.5,44.4,29.89,WNW,294,0.0,0.0,89,0.00,,,0.00,meteohub,2013-05-17 07:42:00,
2013-05-17 03:47:00,47.3,44.6,29.89,WNW,294,0.0,0.0,90,0.00,,,0.00,meteohub,2013-05-17 07:47:00,
2013-05-17 03:52:00,47.1,44.4,29.90,WNW,294,0.0,0.0,90,0.00,,,0.00,meteohub,2013-05-17 07:52:00,
2013-05-17 03:57:00,47.1,44.6,29.90,WNW,294,0.0,0.0,91,0.00,,,0.00,meteohub,2013-05-17 07:57:00,
2013-05-17 04:02:00,47.1,44.4,29.90,WNW,294,0.0,0.0,90,0.00,,,0.00,meteohub,2013-05-17 08:02:00,
2013-05-17 04:07:00,47.1,44.6,29.90,WNW,294,0.0,0.0,91,0.00,,,0.00,meteohub,2013-05-17 08:07:00,
2013-05-17 04:12:00,47.3,45.1,29.91,WNW,294,0.0,0.0,92,0.00,,,0.00,meteohub,2013-05-17 08:12:00,
2013-05-17 04:17:00,47.7,45.0,29.91,WNW,294,0.0,0.0,90,0.00,,,0.00,meteohub,2013-05-17 08:17:00,
2013-05-17 04:22:00,47.8,43.9,29.91,WNW,294,0.0,0.0,86,0.00,,,0.00,meteohub,2013-05-17 08:22:00,
2013-05-17 04:27:00,48.2,43.0,29.91,WNW,294,0.0,0.0,82,0.00,,,0.00,meteohub,2013-05-17 08:27:00,
2013-05-17 04:32:00,49.1,43.5,29.91,WNW,294,0.0,0.0,81,0.00,,,0.00,meteohub,2013-05-17 08:32:00,
2013-05-17 04:37:00,50.2,43.5,29.92,WNW,294,0.0,0.0,78,0.00,,,0.00,meteohub,2013-05-17 08:37:00,
2013-05-17 04:42:00,50.7,43.5,29.92,WNW,294,0.0,0.0,76,0.00,,,0.00,meteohub,2013-05-17 08:42:00,
2013-05-17 04:47:00,50.7,44.4,29.92,WNW,294,0.0,0.0,79,0.00,,,0.00,meteohub,2013-05-17 08:47:00,
2013-05-17 04:52:00,50.5,44.6,29.93,WNW,294,0.0,0.0,80,0.00,,,0.00,meteohub,2013-05-17 08:52:00,
2013-05-17 04:57:00,50.2,44.6,29.93,WNW,294,0.0,0.0,81,0.00,,,0.00,meteohub,2013-05-17 08:57:00,
2013-05-17 05:02:00,49.5,44.6,29.93,WNW,294,0.0,0.0,83,0.00,,,0.00,meteohub,2013-05-17 09:02:00,
2013-05-17 05:07:00,48.9,44.6,29.94,WNW,294,0.0,0.0,85,0.00,,,0.00,meteohub,2013-05-17 09:07:00,
2013-05-17 05:12:00,48.6,44.6,29.94,WNW,294,0.0,0.0,86,0.00,,,0.00,meteohub,2013-05-17 09:12:00,
2013-05-17 05:17:00,48.4,44.8,29.94,WNW,294,0.0,0.0,87,0.00,,,0.00,meteohub,2013-05-17 09:17:00,
2013-05-17 05:22:00,48.0,44.6,29.95,WNW,294,0.0,0.0,88,0.00,,,0.00,meteohub,2013-05-17 09:22:00,
2013-05-17 05:27:00,47.7,44.2,29.95,WNW,294,0.0,0.0,88,0.00,,,0.00,meteohub,2013-05-17 09:27:00,
2013-05-17 05:32:00,47.5,44.1,29.95,WNW,294,0.0,0.0,88,0.00,,,0.00,meteohub,2013-05-17 09:32:00,
2013-05-17 05:37:00,46.9,43.5,29.95,WNW,294,0.0,0.0,88,0.00,,,0.00,meteohub,2013-05-17 09:37:00,
2013-05-17 05:42:00,46.8,43.3,29.96,WNW,294,0.0,0.0,88,0.00,,,0.00,meteohub,2013-05-17 09:42:00,
2013-05-17 05:47:00,46.6,43.5,29.96,WNW,294,0.0,0.0,89,0.00,,,0.00,meteohub,2013-05-17 09:47:00,
2013-05-17 05:52:00,46.2,43.5,29.97,WNW,294,0.0,0.0,90,0.00,,,0.00,meteohub,2013-05-17 09:52:00,
2013-05-17 05:57:00,46.0,43.3,29.97,WNW,294,0.0,0.0,90,0.00,,,0.00,meteohub,2013-05-17 09:57:00,
2013-05-17 06:02:00,45.9,43.3,29.97,WNW,294,0.0,0.0,91,0.00,,,0.00,meteohub,2013-05-17 10:02:00,
2013-05-17 06:07:00,45.7,43.2,29.97,WNW,294,0.0,0.0,91,0.00,,,0.00,meteohub,2013-05-17 10:07:00,
2013-05-17 06:12:00,45.7,43.2,29.97,WNW,294,0.0,0.0,91,0.00,,,0.00,meteohub,2013-05-17 10:12:00,
2013-05-17 06:17:00,45.9,43.7,29.98,WNW,294,0.0,0.0,92,0.00,,,0.00,meteohub,2013-05-17 10:17:00,
2013-05-17 06:22:00,46.4,44.4,29.98,WNW,294,0.0,0.0,93,0.00,,,0.00,meteohub,2013-05-17 10:22:00,
2013-05-17 06:27:00,46.9,44.8,29.98,WNW,294,0.0,0.0,92,0.00,,,0.00,meteohub,2013-05-17 10:27:00,
2013-05-17 06:32:00,48.0,45.1,29.98,WNW,294,0.0,0.0,90,0.00,,,0.00,meteohub,2013-05-17 10:32:00,
2013-05-17 06:37:00,49.1,46.0,29.98,WNW,294,0.0,0.0,89,0.00,,,0.00,meteohub,2013-05-17 10:37:00,
2013-05-17 06:42:00,50.2,46.4,29.99,WNW,294,0.0,0.0,87,0.00,,,0.00,meteohub,2013-05-17 10:42:00,
2013-05-17 06:47:00,51.1,47.7,29.99,WNW,294,0.0,0.0,88,0.00,,,0.00,meteohub,2013-05-17 10:47:00,
2013-05-17 06:52:00,52.2,47.8,29.99,WNW,294,0.0,0.0,85,0.00,,,0.00,meteohub,2013-05-17 10:52:00,
2013-05-17 06:57:00,52.9,48.2,29.99,WNW,294,0.0,0.0,84,0.00,,,0.00,meteohub,2013-05-17 10:57:00,
2013-05-17 07:02:00,53.2,47.8,29.99,WNW,294,0.0,0.0,82,0.00,,,0.00,meteohub,2013-05-17 11:02:00,
2013-05-17 07:07:00,54.0,47.3,29.99,WNW,294,0.0,0.0,78,0.00,,,0.00,meteohub,2013-05-17 11:07:00,
2013-05-17 07:12:00,55.0,48.4,29.99,WNW,294,0.0,0.0,78,0.00,,,0.00,meteohub,2013-05-17 11:12:00,
2013-05-17 07:17:00,55.9,47.5,29.99,WNW,294,0.0,0.0,73,0.00,,,0.00,meteohub,2013-05-17 11:17:00,
2013-05-17 07:22:00,56.8,47.8,29.99,WNW,294,0.0,0.0,72,0.00,,,0.00,meteohub,2013-05-17 11:22:00,
2013-05-17 07:27:00,57.2,45.9,29.99,WNW,294,0.0,0.0,66,0.00,,,0.00,meteohub,2013-05-17 11:27:00,
2013-05-17 07:32:00,57.4,45.0,29.99,WNW,294,0.0,0.0,63,0.00,,,0.00,meteohub,2013-05-17 11:32:00,
2013-05-17 07:37:00,57.6,45.1,30.00,WNW,294,0.0,0.0,63,0.00,,,0.00,meteohub,2013-05-17 11:37:00,
2013-05-17 07:42:00,57.7,45.3,30.00,WNW,294,0.0,0.0,63,0.00,,,0.00,meteohub,2013-05-17 11:42:00,
2013-05-17 07:47:00,58.1,46.0,30.00,WNW,294,0.0,0.0,64,0.00,,,0.00,meteohub,2013-05-17 11:47:00,
2013-05-17 07:52:00,57.9,44.6,30.00,WNW,294,0.0,0.0,61,0.00,,,0.00,meteohub,2013-05-17 11:52:00,
2013-05-17 07:58:00,58.3,45.0,30.00,WNW,294,0.0,0.0,61,0.00,,,0.00,meteohub,2013-05-17 11:58:00,
2013-05-17 08:03:00,58.5,44.6,30.01,WNW,294,0.0,0.0,60,0.00,,,0.00,meteohub,2013-05-17 12:03:00,
2013-05-17 08:08:00,58.3,45.3,30.01,WNW,294,0.0,0.0,62,0.00,,,0.00,meteohub,2013-05-17 12:08:00,
2013-05-17 08:13:00,58.8,45.3,30.01,WNW,294,0.0,0.0,61,0.00,,,0.00,meteohub,2013-05-17 12:13:00,
2013-05-17 08:18:00,59.4,45.5,30.02,WNW,294,0.0,0.0,60,0.00,,,0.00,meteohub,2013-05-17 12:18:00,
2013-05-17 08:23:00,59.5,46.9,30.02,WNW,294,0.0,0.0,63,0.00,,,0.00,meteohub,2013-05-17 12:23:00,
2013-05-17 08:28:00,59.4,44.6,30.02,WNW,294,0.0,0.0,58,0.00,,,0.00,meteohub,2013-05-17 12:28:00,
2013-05-17 08:33:00,59.4,44.6,30.03,WNW,294,0.0,0.0,58,0.00,,,0.00,meteohub,2013-05-17 12:33:00,
2013-05-17 08:39:00,59.2,46.2,30.03,WNW,294,0.0,0.0,62,0.00,,,0.00,meteohub,2013-05-17 12:39:00,
2013-05-17 08:44:00,59.4,45.5,30.03,WNW,294,0.0,0.0,60,0.00,,,0.00,meteohub,2013-05-17 12:44:00,
2013-05-17 08:49:00,60.1,45.7,30.03,WNW,294,0.0,0.0,59,0.00,,,0.00,meteohub,2013-05-17 12:49:00,
2013-05-17 08:54:00,60.3,46.8,30.03,WNW,294,0.0,0.0,61,0.00,,,0.00,meteohub,2013-05-17 12:54:00,
2013-05-17 08:59:00,60.3,45.0,30.02,WNW,294,0.0,0.0,57,0.00,,,0.00,meteohub,2013-05-17 12:59:00,
2013-05-17 09:04:00,60.3,45.0,30.03,WNW,294,0.0,0.0,57,0.00,,,0.00,meteohub,2013-05-17 13:04:00,
2013-05-17 09:09:00,59.7,44.4,30.03,WNW,294,0.0,0.0,57,0.00,,,0.00,meteohub,2013-05-17 13:09:00,
2013-05-17 09:15:00,59.4,43.7,30.03,WNW,294,0.0,0.0,56,0.00,,,0.00,meteohub,2013-05-17 13:15:00,
2013-05-17 09:20:00,59.4,44.6,30.03,WNW,294,0.0,0.0,58,0.00,,,0.00,meteohub,2013-05-17 13:20:00,
2013-05-17 09:25:00,59.2,44.4,30.03,WNW,294,0.0,0.0,58,0.00,,,0.00,meteohub,2013-05-17 13:25:00,
2013-05-17 09:30:00,59.2,45.7,30.03,WNW,294,0.0,0.0,61,0.00,,,0.00,meteohub,2013-05-17 13:30:00,
2013-05-17 09:35:00,59.5,46.6,30.04,WNW,294,0.0,0.0,62,0.00,,,0.00,meteohub,2013-05-17 13:35:00,
2013-05-17 09:40:00,59.7,46.2,30.04,WNW,294,0.0,0.0,61,0.00,,,0.00,meteohub,2013-05-17 13:40:00,
2013-05-17 09:46:00,59.7,44.4,30.04,WNW,294,0.0,0.0,57,0.00,,,0.00,meteohub,2013-05-17 13:46:00,
2013-05-17 09:51:00,59.4,44.1,30.04,WNW,294,0.0,0.0,57,0.00,,,0.00,meteohub,2013-05-17 13:51:00,
2013-05-17 09:56:00,59.5,46.0,30.04,WNW,294,0.0,0.0,61,0.00,,,0.00,meteohub,2013-05-17 13:56:00,
2013-05-17 10:02:00,60.1,45.3,30.04,WNW,294,0.0,0.0,58,0.00,,,0.00,meteohub,2013-05-17 14:02:00,
2013-05-17 10:07:00,60.6,47.1,30.04,WNW,294,0.0,0.0,61,0.00,,,0.00,meteohub,2013-05-17 14:07:00,
2013-05-17 10:12:00,61.3,45.5,30.04,WNW,294,0.0,0.0,56,0.00,,,0.00,meteohub,2013-05-17 14:12:00,
2013-05-17 10:17:00,61.3,45.5,30.04,WNW,294,0.0,0.0,56,0.00,,,0.00,meteohub,2013-05-17 14:17:00,
2013-05-17 10:22:00,61.5,46.2,30.04,WNW,294,0.0,0.0,57,0.00,,,0.00,meteohub,2013-05-17 14:22:00,
2013-05-17 10:27:00,61.9,46.4,30.04,WNW,294,0.0,0.0,57,0.00,,,0.00,meteohub,2013-05-17 14:27:00,
2013-05-17 10:32:00,61.9,46.4,30.04,WNW,294,0.0,0.0,57,0.00,,,0.00,meteohub,2013-05-17 14:32:00,
2013-05-17 10:37:00,62.1,47.5,30.04,WNW,294,0.0,0.0,59,0.00,,,0.00,meteohub,2013-05-17 14:37:00,
2013-05-17 10:42:00,62.2,47.3,30.04,WNW,294,0.0,0.0,58,0.00,,,0.00,meteohub,2013-05-17 14:42:00,
2013-05-17 10:47:00,62.4,47.5,30.05,WNW,294,0.0,0.0,58,0.00,,,0.00,meteohub,2013-05-17 14:47:00,
2013-05-17 10:52:00,62.1,46.2,30.05,WNW,294,0.0,0.0,56,0.00,,,0.00,meteohub,2013-05-17 14:52:00,
2013-05-17 10:57:00,62.2,46.8,30.05,WNW,294,0.0,0.0,57,0.00,,,0.00,meteohub,2013-05-17 14:57:00,
2013-05-17 11:02:00,62.4,46.0,30.05,WNW,294,0.0,0.0,55,0.00,,,0.00,meteohub,2013-05-17 15:02:00,
2013-05-17 11:07:00,63.0,47.5,30.05,WNW,294,0.0,0.0,57,0.00,,,0.00,meteohub,2013-05-17 15:07:00,
2013-05-17 11:12:00,63.1,46.8,30.05,WNW,294,0.0,0.0,55,0.00,,,0.00,meteohub,2013-05-17 15:12:00,
2013-05-17 11:17:00,63.3,47.3,30.05,WNW,294,0.0,0.0,56,0.00,,,0.00,meteohub,2013-05-17 15:17:00,
2013-05-17 11:22:00,63.1,45.1,30.05,WNW,294,0.0,0.0,52,0.00,,,0.00,meteohub,2013-05-17 15:22:00,
2013-05-17 11:27:00,63.0,46.0,30.05,WNW,294,0.0,0.0,54,0.00,,,0.00,meteohub,2013-05-17 15:27:00,
2013-05-17 11:32:00,63.1,46.2,30.05,WNW,294,0.0,0.0,54,0.00,,,0.00,meteohub,2013-05-17 15:32:00,
2013-05-17 11:37:00,63.3,45.9,30.05,WNW,294,0.0,0.0,53,0.00,,,0.00,meteohub,2013-05-17 15:37:00,
2013-05-17 11:42:00,63.1,44.2,30.05,WNW,294,0.0,0.0,50,0.00,,,0.00,meteohub,2013-05-17 15:42:00,
2013-05-17 11:47:00,63.0,45.1,30.04,WNW,294,0.0,0.0,52,0.00,,,0.00,meteohub,2013-05-17 15:47:00,
2013-05-17 11:52:00,63.3,47.3,30.05,WNW,294,0.0,0.0,56,0.00,,,0.00,meteohub,2013-05-17 15:52:00,
2013-05-17 11:57:00,64.2,46.8,30.04,WNW,294,0.0,0.0,53,0.00,,,0.00,meteohub,2013-05-17 15:57:00,
2013-05-17 12:02:00,64.0,43.9,30.04,WNW,294,0.0,0.0,48,0.00,,,0.00,meteohub,2013-05-17 16:02:00,
2013-05-17 12:07:00,63.9,46.4,30.04,WNW,294,0.0,0.0,53,0.00,,,0.00,meteohub,2013-05-17 16:07:00,
2013-05-17 12:12:00,63.9,45.9,30.04,WNW,294,0.0,0.0,52,0.00,,,0.00,meteohub,2013-05-17 16:12:00,
2013-05-17 12:17:00,63.9,44.8,30.04,WNW,294,0.0,0.0,50,0.00,,,0.00,meteohub,2013-05-17 16:17:00,
2013-05-17 12:22:00,63.9,46.4,30.04,WNW,294,0.0,0.0,53,0.00,,,0.00,meteohub,2013-05-17 16:22:00,
2013-05-17 12:27:00,64.2,47.3,30.04,WNW,294,0.0,0.0,54,0.00,,,0.00,meteohub,2013-05-17 16:27:00,
2013-05-17 12:32:00,65.3,48.7,30.04,WNW,294,0.0,0.0,55,0.00,,,0.00,meteohub,2013-05-17 16:32:00,
2013-05-17 12:37:00,65.7,45.5,30.04,WNW,294,0.0,0.0,48,0.00,,,0.00,meteohub,2013-05-17 16:37:00,
2013-05-17 12:42:00,65.7,45.0,30.04,WNW,294,0.0,0.0,47,0.00,,,0.00,meteohub,2013-05-17 16:42:00,
2013-05-17 12:48:00,66.0,47.3,30.04,WNW,294,0.0,0.0,51,0.00,,,0.00,meteohub,2013-05-17 16:48:00,
2013-05-17 12:53:00,66.4,45.0,30.04,WNW,294,0.0,0.0,46,0.00,,,0.00,meteohub,2013-05-17 16:53:00,
2013-05-17 12:58:00,66.0,46.4,30.04,WNW,294,0.0,0.0,49,0.00,,,0.00,meteohub,2013-05-17 16:58:00,
2013-05-17 13:03:00,66.9,49.8,30.04,WNW,294,0.0,0.0,54,0.00,,,0.00,meteohub,2013-05-17 17:03:00,
2013-05-17 13:08:00,67.8,47.5,30.04,WNW,294,0.0,0.0,48,0.00,,,0.00,meteohub,2013-05-17 17:08:00,
2013-05-17 13:13:00,68.4,46.8,30.04,WNW,294,0.0,0.0,46,0.00,,,0.00,meteohub,2013-05-17 17:13:00,
2013-05-17 13:19:00,68.5,45.7,30.04,WNW,294,0.0,0.0,44,0.00,,,0.00,meteohub,2013-05-17 17:19:00,
2013-05-17 13:24:00,68.5,45.7,30.04,WNW,294,0.0,0.0,44,0.00,,,0.00,meteohub,2013-05-17 17:24:00,
2013-05-17 13:29:00,68.5,49.1,30.04,WNW,294,0.0,0.0,50,0.00,,,0.00,meteohub,2013-05-17 17:29:00,
2013-05-17 13:34:00,69.4,47.1,30.04,WNW,294,0.0,0.0,45,0.00,,,0.00,meteohub,2013-05-17 17:34:00,
2013-05-17 13:39:00,69.3,45.1,30.04,WNW,294,0.0,0.0,42,0.00,,,0.00,meteohub,2013-05-17 17:39:00,
2013-05-17 13:44:00,69.4,47.8,30.04,WNW,294,0.0,0.0,46,0.00,,,0.00,meteohub,2013-05-17 17:44:00,
2013-05-17 13:49:00,70.0,50.0,30.04,WNW,294,0.0,0.0,49,0.00,,,0.00,meteohub,2013-05-17 17:49:00,
2013-05-17 13:54:00,70.7,48.9,30.05,WNW,294,0.0,0.0,46,0.00,,,0.00,meteohub,2013-05-17 17:54:00,
2013-05-17 14:00:00,70.9,47.3,30.04,WNW,294,0.0,0.0,43,0.00,,,0.00,meteohub,2013-05-17 18:00:00,
2013-05-17 14:05:00,71.1,46.2,30.04,WNW,294,0.0,0.0,41,0.00,,,0.00,meteohub,2013-05-17 18:05:00,
2013-05-17 14:10:00,70.9,48.6,30.04,WNW,294,0.0,0.0,45,0.00,,,0.00,meteohub,2013-05-17 18:10:00,
2013-05-17 14:15:00,71.4,45.9,30.04,WNW,294,0.0,0.0,40,0.00,,,0.00,meteohub,2013-05-17 18:15:00,
2013-05-17 14:20:00,71.8,48.7,30.05,WNW,294,0.0,0.0,44,0.00,,,0.00,meteohub,2013-05-17 18:20:00,
2013-05-17 14:25:00,72.0,47.7,30.05,WNW,294,0.0,0.0,42,0.00,,,0.00,meteohub,2013-05-17 18:25:00,
2013-05-17 14:30:00,71.6,46.6,30.05,WNW,294,0.0,0.0,41,0.00,,,0.00,meteohub,2013-05-17 18:30:00,
2013-05-17 14:36:00,71.4,43.7,30.05,WNW,294,0.0,0.0,37,0.00,,,0.00,meteohub,2013-05-17 18:36:00,
2013-05-17 14:41:00,70.7,43.9,30.05,WNW,294,0.0,0.0,38,0.00,,,0.00,meteohub,2013-05-17 18:41:00,
2013-05-17 14:46:00,70.9,44.1,30.05,WNW,294,0.0,0.0,38,0.00,,,0.00,meteohub,2013-05-17 18:46:00,
2013-05-17 14:51:00,71.2,47.7,30.05,WNW,294,0.0,0.0,43,0.00,,,0.00,meteohub,2013-05-17 18:51:00,
2013-05-17 14:56:00,71.2,47.7,30.05,WNW,294,0.0,0.0,43,0.00,,,0.00,meteohub,2013-05-17 18:56:00,
2013-05-17 15:01:00,71.4,44.4,30.05,WNW,294,0.0,0.0,38,0.00,,,0.00,meteohub,2013-05-17 19:01:00,
2013-05-17 15:06:00,71.2,44.2,30.05,WNW,294,0.0,0.0,38,0.00,,,0.00,meteohub,2013-05-17 19:06:00,
2013-05-17 15:12:00,71.2,43.7,30.05,WNW,294,0.0,0.0,37,0.00,,,0.00,meteohub,2013-05-17 19:12:00,
2013-05-17 15:17:00,71.2,45.7,30.05,WNW,294,0.0,0.0,40,0.00,,,0.00,meteohub,2013-05-17 19:17:00,
2013-05-17 15:22:00,71.2,44.2,30.05,WNW,294,0.0,0.0,38,0.00,,,0.00,meteohub,2013-05-17 19:22:00,
2013-05-17 15:27:00,71.2,45.0,30.04,WNW,294,0.0,0.0,39,0.00,,,0.00,meteohub,2013-05-17 19:27:00,
2013-05-17 15:32:00,71.8,44.8,30.04,WNW,294,0.0,0.0,38,0.00,,,0.00,meteohub,2013-05-17 19:32:00,
2013-05-17 15:37:00,72.0,46.9,30.04,WNW,294,0.0,0.0,41,0.00,,,0.00,meteohub,2013-05-17 19:37:00,
2013-05-17 15:42:00,72.5,46.2,30.04,WNW,294,0.0,0.0,39,0.00,,,0.00,meteohub,2013-05-17 19:42:00,
2013-05-17 15:47:00,72.9,43.5,30.05,WNW,294,0.0,0.0,35,0.00,,,0.00,meteohub,2013-05-17 19:47:00,
2013-05-17 15:52:00,72.9,44.4,30.05,WNW,294,0.0,0.0,36,0.00,,,0.00,meteohub,2013-05-17 19:52:00,
2013-05-17 15:57:00,72.9,43.5,30.05,WNW,294,0.0,0.0,35,0.00,,,0.00,meteohub,2013-05-17 19:57:00,
2013-05-17 16:02:00,72.7,47.7,30.05,WNW,294,0.0,0.0,41,0.00,,,0.00,meteohub,2013-05-17 20:02:00,
2013-05-17 16:07:00,72.7,43.5,30.05,WNW,294,0.0,0.0,35,0.00,,,0.00,meteohub,2013-05-17 20:07:00,
2013-05-17 16:12:00,72.9,44.4,30.05,WNW,294,0.0,0.0,36,0.00,,,0.00,meteohub,2013-05-17 20:12:00,
2013-05-17 16:17:00,72.7,41.9,30.05,WNW,294,0.0,0.0,33,0.00,,,0.00,meteohub,2013-05-17 20:17:00,
2013-05-17 16:22:00,72.3,46.0,30.05,WNW,294,0.0,0.0,39,0.00,,,0.00,meteohub,2013-05-17 20:22:00,
2013-05-17 16:27:00,72.0,42.8,30.05,WNW,294,0.0,0.0,35,0.00,,,0.00,meteohub,2013-05-17 20:27:00,
2013-05-17 16:32:00,72.3,46.6,30.05,WNW,294,0.0,0.0,40,0.00,,,0.00,meteohub,2013-05-17 20:32:00,
2013-05-17 16:37:00,72.9,43.5,30.05,WNW,294,0.0,0.0,35,0.00,,,0.00,meteohub,2013-05-17 20:37:00,
2013-05-17 16:42:00,73.0,44.4,30.05,WNW,294,0.0,0.0,36,0.00,,,0.00,meteohub,2013-05-17 20:42:00,
2013-05-17 16:47:00,72.3,43.2,30.05,WNW,294,0.0,0.0,35,0.00,,,0.00,meteohub,2013-05-17 20:47:00,
2013-05-17 16:52:00,72.3,43.9,30.06,WNW,294,0.0,0.0,36,0.00,,,0.00,meteohub,2013-05-17 20:52:00,
2013-05-17 16:57:00,72.5,45.5,30.06,WNW,294,0.0,0.0,38,0.00,,,0.00,meteohub,2013-05-17 20:57:00,
2013-05-17 17:02:00,72.9,45.7,30.06,WNW,294,0.0,0.0,38,0.00,,,0.00,meteohub,2013-05-17 21:02:00,
2013-05-17 17:07:00,72.9,42.1,30.06,WNW,294,0.0,0.0,33,0.00,,,0.00,meteohub,2013-05-17 21:07:00,
2013-05-17 17:12:00,72.7,41.9,30.07,WNW,294,0.0,0.0,33,0.00,,,0.00,meteohub,2013-05-17 21:12:00,
2013-05-17 17:17:00,72.3,43.2,30.06,WNW,294,0.0,0.0,35,0.00,,,0.00,meteohub,2013-05-17 21:17:00,
2013-05-17 17:22:00,72.3,43.2,30.07,WNW,294,0.0,0.0,35,0.00,,,0.00,meteohub,2013-05-17 21:22:00,
2013-05-17 17:27:00,72.0,41.4,30.07,WNW,294,0.0,0.0,33,0.00,,,0.00,meteohub,2013-05-17 21:27:00,
2013-05-17 17:32:00,71.6,42.4,30.07,WNW,294,0.0,0.0,35,0.00,,,0.00,meteohub,2013-05-17 21:32:00,
2013-05-17 17:37:00,70.9,42.6,30.07,WNW,294,0.0,0.0,36,0.00,,,0.00,meteohub,2013-05-17 21:37:00,
2013-05-17 17:42:00,70.5,44.4,30.07,WNW,294,0.0,0.0,39,0.00,,,0.00,meteohub,2013-05-17 21:42:00,
2013-05-17 17:47:00,70.2,42.6,30.07,WNW,294,0.0,0.0,37,0.00,,,0.00,meteohub,2013-05-17 21:47:00,
2013-05-17 17:53:00,69.6,43.5,30.08,WNW,294,0.0,0.0,39,0.00,,,0.00,meteohub,2013-05-17 21:53:00,
2013-05-17 17:58:00,69.6,42.3,30.08,WNW,294,0.0,0.0,37,0.00,,,0.00,meteohub,2013-05-17 21:58:00,
2013-05-17 18:03:00,69.6,41.5,30.08,WNW,294,0.0,0.0,36,0.00,,,0.00,meteohub,2013-05-17 22:03:00,
2013-05-17 18:08:00,69.4,42.1,30.09,WNW,294,0.0,0.0,37,0.00,,,0.00,meteohub,2013-05-17 22:08:00,
2013-05-17 18:13:00,69.4,42.8,30.09,WNW,294,0.0,0.0,38,0.00,,,0.00,meteohub,2013-05-17 22:13:00,
2013-05-17 18:18:00,69.4,42.8,30.09,WNW,294,0.0,0.0,38,0.00,,,0.00,meteohub,2013-05-17 22:18:00,
2013-05-17 18:24:00,69.3,42.6,30.09,WNW,294,0.0,0.0,38,0.00,,,0.00,meteohub,2013-05-17 22:24:00,
2013-05-17 18:29:00,68.9,43.5,30.09,WNW,294,0.0,0.0,40,0.00,,,0.00,meteohub,2013-05-17 22:29:00,
2013-05-17 18:34:00,68.5,42.6,30.09,WNW,294,0.0,0.0,39,0.00,,,0.00,meteohub,2013-05-17 22:34:00,
2013-05-17 18:39:00,68.5,42.6,30.09,WNW,294,0.0,0.0,39,0.00,,,0.00,meteohub,2013-05-17 22:39:00,
2013-05-17 18:44:00,68.5,43.3,30.09,WNW,294,0.0,0.0,40,0.00,,,0.00,meteohub,2013-05-17 22:44:00,
2013-05-17 18:49:00,68.9,43.5,30.10,WNW,294,0.0,0.0,40,0.00,,,0.00,meteohub,2013-05-17 22:49:00,
2013-05-17 18:54:00,68.7,42.8,30.10,WNW,294,0.0,0.0,39,0.00,,,0.00,meteohub,2013-05-17 22:54:00,
2013-05-17 19:00:00,68.5,42.6,30.10,WNW,294,0.0,0.0,39,0.00,,,0.00,meteohub,2013-05-17 23:00:00,
2013-05-17 19:05:00,68.2,42.3,30.10,WNW,294,0.0,0.0,39,0.00,,,0.00,meteohub,2013-05-17 23:05:00,
2013-05-17 19:10:00,67.8,42.6,30.10,WNW,294,0.0,0.0,40,0.00,,,0.00,meteohub,2013-05-17 23:10:00,
2013-05-17 19:15:00,67.5,42.3,30.11,WNW,294,0.0,0.0,40,0.00,,,0.00,meteohub,2013-05-17 23:15:00,
2013-05-17 19:20:00,67.1,41.9,30.11,WNW,294,0.0,0.0,40,0.00,,,0.00,meteohub,2013-05-17 23:20:00,
2013-05-17 19:26:00,66.6,42.1,30.11,WNW,294,0.0,0.0,41,0.00,,,0.00,meteohub,2013-05-17 23:26:00,
2013-05-17 19:31:00,66.0,42.8,30.11,WNW,294,0.0,0.0,43,0.00,,,0.00,meteohub,2013-05-17 23:31:00,
2013-05-17 19:36:00,65.7,42.6,30.12,WNW,294,0.0,0.0,43,0.00,,,0.00,meteohub,2013-05-17 23:36:00,
2013-05-17 19:41:00,64.9,41.9,30.12,WNW,294,0.0,0.0,43,0.00,,,0.00,meteohub,2013-05-17 23:41:00,
2013-05-17 19:46:00,64.6,42.3,30.12,WNW,294,0.0,0.0,44,0.00,,,0.00,meteohub,2013-05-17 23:46:00,
2013-05-17 19:51:00,64.0,42.8,30.12,WNW,294,0.0,0.0,46,0.00,,,0.00,meteohub,2013-05-17 23:51:00,
2013-05-17 19:56:00,63.3,42.8,30.12,WNW,294,0.0,0.0,47,0.00,,,0.00,meteohub,2013-05-17 23:56:00,
2013-05-17 20:02:00,63.0,42.4,30.13,WNW,294,0.0,0.0,47,0.00,,,0.00,meteohub,2013-05-18 00:02:00,
2013-05-17 20:07:00,62.4,43.0,30.13,WNW,294,0.0,0.0,49,0.00,,,0.00,meteohub,2013-05-18 00:07:00,
2013-05-17 20:12:00,62.1,43.2,30.13,WNW,294,0.0,0.0,50,0.00,,,0.00,meteohub,2013-05-18 00:12:00,
2013-05-17 20:17:00,61.5,42.6,30.13,WNW,294,0.0,0.0,50,0.00,,,0.00,meteohub,2013-05-18 00:17:00,
2013-05-17 20:22:00,61.2,43.3,30.14,WNW,294,0.0,0.0,52,0.00,,,0.00,meteohub,2013-05-18 00:22:00,
2013-05-17 20:27:00,60.8,43.5,30.14,WNW,294,0.0,0.0,53,0.00,,,0.00,meteohub,2013-05-18 00:27:00,
2013-05-17 20:32:00,60.4,44.2,30.14,WNW,294,0.0,0.0,55,0.00,,,0.00,meteohub,2013-05-18 00:32:00,
2013-05-17 20:37:00,60.1,43.9,30.14,WNW,294,0.0,0.0,55,0.00,,,0.00,meteohub,2013-05-18 00:37:00,
2013-05-17 20:42:00,59.7,43.5,30.15,WNW,294,0.0,0.0,55,0.00,,,0.00,meteohub,2013-05-18 00:42:00,
2013-05-17 20:47:00,59.4,44.6,30.15,WNW,294,0.0,0.0,58,0.00,,,0.00,meteohub,2013-05-18 00:47:00,
2013-05-17 20:52:00,58.8,44.6,30.15,WNW,294,0.0,0.0,59,0.00,,,0.00,meteohub,2013-05-18 00:52:00,
2013-05-17 20:57:00,58.6,44.4,30.16,WNW,294,0.0,0.0,59,0.00,,,0.00,meteohub,2013-05-18 00:57:00,
2013-05-17 21:02:00,58.3,45.0,30.16,WNW,294,0.0,0.0,61,0.00,,,0.00,meteohub,2013-05-18 01:02:00,
2013-05-17 21:07:00,57.7,44.8,30.16,WNW,294,0.0,0.0,62,0.00,,,0.00,meteohub,2013-05-18 01:07:00,
2013-05-17 21:12:00,57.0,44.1,30.17,WNW,294,0.0,0.0,62,0.00,,,0.00,meteohub,2013-05-18 01:12:00,
2013-05-17 21:17:00,56.7,44.6,30.17,WNW,294,0.0,0.0,64,0.00,,,0.00,meteohub,2013-05-18 01:17:00,
2013-05-17 21:22:00,56.1,43.7,30.17,WNW,294,0.0,0.0,63,0.00,,,0.00,meteohub,2013-05-18 01:22:00,
2013-05-17 21:27:00,55.9,43.9,30.17,WNW,294,0.0,0.0,64,0.00,,,0.00,meteohub,2013-05-18 01:27:00,
2013-05-17 21:32:00,55.6,43.2,30.18,WNW,294,0.0,0.0,63,0.00,,,0.00,meteohub,2013-05-18 01:32:00,
2013-05-17 21:37:00,55.2,43.7,30.18,WNW,294,0.0,0.0,65,0.00,,,0.00,meteohub,2013-05-18 01:37:00,
2013-05-17 21:42:00,55.0,43.9,30.18,WNW,294,0.0,0.0,66,0.00,,,0.00,meteohub,2013-05-18 01:42:00,
2013-05-17 21:47:00,54.7,43.5,30.18,WNW,294,0.0,0.0,66,0.00,,,0.00,meteohub,2013-05-18 01:47:00,
2013-05-17 21:52:00,54.3,43.2,30.18,WNW,294,0.0,0.0,66,0.00,,,0.00,meteohub,2013-05-18 01:52:00,
2013-05-17 21:57:00,54.1,43.3,30.18,WNW,294,0.0,0.0,67,0.00,,,0.00,meteohub,2013-05-18 01:57:00,
2013-05-17 22:02:00,54.0,43.7,30.18,WNW,294,0.0,0.0,68,0.00,,,0.00,meteohub,2013-05-18 02:02:00,
2013-05-17 22:07:00,53.6,43.3,30.18,WNW,294,0.0,0.0,68,0.00,,,0.00,meteohub,2013-05-18 02:07:00,
2013-05-17 22:12:00,53.2,43.3,30.18,WNW,294,0.0,0.0,69,0.00,,,0.00,meteohub,2013-05-18 02:12:00,
2013-05-17 22:18:00,53.1,43.5,30.18,WNW,294,0.0,0.0,70,0.00,,,0.00,meteohub,2013-05-18 02:18:00,
2013-05-17 22:23:00,52.9,43.0,30.19,WNW,294,0.0,0.0,69,0.00,,,0.00,meteohub,2013-05-18 02:23:00,
2013-05-17 22:28:00,52.7,42.8,30.19,WNW,294,0.0,0.0,69,0.00,,,0.00,meteohub,2013-05-18 02:28:00,
2013-05-17 22:33:00,52.5,42.6,30.19,WNW,294,0.0,0.0,69,0.00,,,0.00,meteohub,2013-05-18 02:33:00,
2013-05-17 22:38:00,52.3,42.4,30.19,WNW,294,0.0,0.0,69,0.00,,,0.00,meteohub,2013-05-18 02:38:00,
2013-05-17 22:43:00,52.2,43.0,30.19,WNW,294,0.0,0.0,71,0.00,,,0.00,meteohub,2013-05-18 02:43:00,
2013-05-17 22:48:00,52.0,42.8,30.19,WNW,294,0.0,0.0,71,0.00,,,0.00,meteohub,2013-05-18 02:48:00,
2013-05-17 22:54:00,51.8,42.6,30.20,WNW,294,0.0,0.0,71,0.00,,,0.00,meteohub,2013-05-18 02:54:00,
2013-05-17 22:59:00,51.6,42.4,30.20,WNW,294,0.0,0.0,71,0.00,,,0.00,meteohub,2013-05-18 02:59:00,
2013-05-17 23:04:00,51.4,42.8,30.20,WNW,294,0.0,0.0,72,0.00,,,0.00,meteohub,2013-05-18 03:04:00,
2013-05-17 23:09:00,51.3,42.6,30.20,WNW,294,0.0,0.0,72,0.00,,,0.00,meteohub,2013-05-18 03:09:00,
2013-05-17 23:14:00,51.3,43.0,30.20,WNW,294,0.0,0.0,73,0.00,,,0.00,meteohub,2013-05-18 03:14:00,
2013-05-17 23:19:00,50.9,42.6,30.20,WNW,294,0.0,0.0,73,0.00,,,0.00,meteohub,2013-05-18 03:19:00,
2013-05-17 23:24:00,50.7,42.4,30.20,WNW,294,0.0,0.0,73,0.00,,,0.00,meteohub,2013-05-18 03:24:00,
2013-05-17 23:30:00,50.7,42.4,30.20,WNW,294,0.0,0.0,73,0.00,,,0.00,meteohub,2013-05-18 03:30:00,
2013-05-17 23:35:00,50.5,42.6,30.20,WNW,294,0.0,0.0,74,0.00,,,0.00,meteohub,2013-05-18 03:35:00,
2013-05-17 23:40:00,50.5,43.0,30.21,WNW,294,0.0,0.0,75,0.00,,,0.00,meteohub,2013-05-18 03:40:00,
2013-05-17 23:45:00,50.5,43.3,30.21,WNW,294,0.0,0.0,76,0.00,,,0.00,meteohub,2013-05-18 03:45:00,
2013-05-17 23:50:00,50.4,43.3,30.21,WNW,294,0.0,0.0,77,0.00,,,0.00,meteohub,2013-05-18 03:50:00,
2013-05-17 23:55:00,50.4,43.3,30.21,WNW,294,0.0,0.0,77,0.00,,,0.00,meteohub,2013-05-18 03:55:00,